Roseburg, OR

1:14 AM PST on November 13, 2019 (GMT -0800)
Roseburg Regional

Weather History for KRBG - September, 2019

Change the Weather History Date:

Monday, September 2, 2019

  Actual Average Record
Temperature  
Mean Temperature 73 °F 68 °F  
Max Temperature 88 °F 82 °F 104 °F (1988)
Min Temperature 57 °F 54 °F 46 °F (2012)
Degree Days  
Heating Degree Days 0 1  
Month to date heating degree days 0 2  
Since 1 July heating degree days 5 23  
Cooling Degree Days 8 4  
Month to date cooling degree days 19 8  
Year to date cooling degree days 622 419  
Growing Degree Days 22 (Base 50)    
Moisture  
Dew Point 53 °F    
Average Humidity 54    
Maximum Humidity 80    
Minimum Humidity 27    
Precipitation  
Precipitation 0.00 in 0.03 in 0.59 in (1941)
Month to date precipitation 0.00 0.05  
Year to date precipitation 22.77 19.70  
Sea Level Pressure  
Sea Level Pressure 30.01 in    
Wind  
Wind Speed 3 mph (North)    
Max Wind Speed 13 mph    
Max Gust Speed 18 mph    
Visibility 10 miles    
Events      
T = Trace of Precipitation, MM = Missing Value Source: NWS Daily Summary

Daily Weather History Graph

Daily Weather History Graph

Search for Another Location

Airport or City:

Astronomy

Sep. 02, 2019 Rise Set
Actual Time 6:38 AM PDT 7:46 PM PDT
Civil Twilight 6:09 AM PDT 8:16 PM PDT
Nautical Twilight 5:34 AM PDT 8:51 PM PDT
Astronomical Twilight 4:57 AM PDT 9:27 PM PDT
Moon 10:33 AM PDT (9/2) 10:05 PM PDT (9/2)
Length of Visible Light 14h 06m
Length of Day
13h 08m
Waxing Crescent, 16% of the Moon is Illuminated
Sep 2
Waxing Crescent
Sep 5
First Quarter
Sep 13
Full
Sep 21
Last Quarter
Sep 28
New

Hourly Weather History & Observations

Time (PDT) Temp. Heat Index Dew Point Humidity Pressure Visibility Wind Dir Wind Speed Gust Speed Precip Events Conditions
12:53 AM 64.9 °F - 52.0 °F 63% 30.02 in 10.0 mi Calm Calm - N/A   Clear
1:53 AM 63.0 °F - 52.0 °F 67% 30.03 in 10.0 mi Calm Calm - N/A   Clear
2:53 AM 61.0 °F - 51.1 °F 70% 30.04 in 10.0 mi Calm Calm - N/A   Clear
3:53 AM 60.1 °F - 52.0 °F 75% 30.03 in 10.0 mi Calm Calm - N/A   Clear
4:53 AM 59.0 °F - 52.0 °F 78% 30.04 in 10.0 mi Calm Calm - N/A   Clear
5:53 AM 57.9 °F - 52.0 °F 81% 30.06 in 10.0 mi Calm Calm - N/A   Clear
6:53 AM 57.0 °F - 51.1 °F 81% 30.06 in 10.0 mi Calm Calm - N/A   Clear
7:53 AM 59.0 °F - 52.0 °F 78% 30.07 in 10.0 mi Calm Calm - N/A   Clear
8:53 AM 63.0 °F - 53.1 °F 70% 30.07 in 10.0 mi Calm Calm - N/A   Clear
9:53 AM 66.0 °F - 54.0 °F 65% 30.06 in 10.0 mi Calm Calm - N/A   Clear
10:53 AM 71.1 °F - 55.0 °F 57% 30.05 in 10.0 mi Calm Calm - N/A   Clear
11:53 AM 73.9 °F - 55.0 °F 52% 30.04 in 10.0 mi Variable 3.5 mph - N/A   Clear
12:53 PM 77.0 °F - 55.0 °F 47% 30.02 in 10.0 mi Calm Calm - N/A   Clear
1:53 PM 82.0 °F 81.4 °F 55.0 °F 39% 30.00 in 10.0 mi Variable 3.5 mph - N/A   Clear
2:53 PM 84.9 °F - 52.0 °F 32% 29.98 in 10.0 mi NNE 8.1 mph - N/A   Clear
3:53 PM 87.1 °F - 50.0 °F 28% 29.96 in 10.0 mi NNE 9.2 mph - N/A   Clear
4:53 PM 84.9 °F - 50.0 °F 30% 29.95 in 10.0 mi Variable 5.8 mph - N/A   Clear
5:53 PM 86.0 °F - 48.9 °F 28% 29.94 in 10.0 mi NNW 6.9 mph - N/A   Clear
6:53 PM 82.9 °F 81.9 °F 54.0 °F 37% 29.95 in 10.0 mi NNW 8.1 mph - N/A   Clear
7:53 PM 77.0 °F - 57.9 °F 52% 29.97 in 10.0 mi WNW 10.4 mph 18.4 mph N/A   Clear
8:53 PM 75.0 °F - 57.0 °F 53% 29.99 in 10.0 mi NNW 5.8 mph - N/A   Clear
9:53 PM 73.0 °F - 57.0 °F 57% 30.00 in 10.0 mi North 5.8 mph - N/A   Clear
10:53 PM 70.0 °F - 55.9 °F 61% 30.01 in 10.0 mi Calm Calm - N/A   Clear
11:53 PM 68.0 °F - 55.0 °F 63% 30.01 in 10.0 mi Calm Calm - N/A   Clear